When you browse on this site, cookies collect data to enhance your experience and personalize the content and advertising you see.
Visit our Privacy Policy to learn more. By continuing to use the site, you agree to this use of cookies and data.
  • In Denmark
  • List of Countries
  • For 7 days
  • Water Temperature
  • Weather Map
  • Weather Widgets
  • user-avatar
    Login

    Hourly Weather Ondjiwa

    Today, 7 April, Tuesday

    Time Temperature Precipitation Wind Pressure Humidity
    00:00 +23°C° 0 mm 1 mps 667 mmHg 65%
    01:00 +23°C° 0 mm 1 mps 667 mmHg 71%
    02:00 +22°C° 0 mm 1 mps 667 mmHg 73%
    03:00 +22°C° 0 mm 1 mps 666 mmHg 74%
    04:00 +22°C° 0 mm 1 mps 666 mmHg 76%
    05:00 +22°C° 0 mm 1 mps 667 mmHg 76%
    06:00 +22°C° 0 mm 1 mps 667 mmHg 76%
    07:00 +23°C° 0 mm 1 mps 668 mmHg 76%
    08:00 +25°C° 0.5 mm 1 mps 668 mmHg 69%
    09:00 +26°C° 0.5 mm 1 mps 669 mmHg 62%
    10:00 +28°C° 0.5 mm 1 mps 669 mmHg 56%
    11:00 +29°C° 0.3 mm 2 mps 668 mmHg 51%
    12:00 +30°C° 0.3 mm 2 mps 668 mmHg 46%
    13:00 +31°C° 0 mm 2 mps 668 mmHg 42%
    14:00 +31°C° 0 mm 2 mps 667 mmHg 41%
    15:00 +31°C° 0 mm 2 mps 666 mmHg 41%
    16:00 +31°C° 0 mm 1 mps 666 mmHg 40%
    17:00 +29°C° 0.1 mm 2 mps 666 mmHg 45%
    18:00 +27°C° 0.1 mm 2 mps 666 mmHg 50%
    19:00 +25°C° 0.1 mm 2 mps 666 mmHg 55%
    20:00 +25°C° 0 mm 1 mps 667 mmHg 57%
    21:00 +24°C° 0 mm 1 mps 667 mmHg 59%
    22:00 +24°C° 0 mm 1 mps 667 mmHg 61%
    23:00 +24°C° 0 mm 1 mps 667 mmHg 63%

    Tomorrow, 8 April, Wednesday

    Time Temperature Precipitation Wind Pressure Humidity
    00:00 +23°C° 0 mm 1 mps 667 mmHg 64%
    01:00 +23°C° 0 mm 1 mps 667 mmHg 66%
    02:00 +22°C° 0 mm 1 mps 666 mmHg 69%
    03:00 +22°C° 0 mm 1 mps 666 mmHg 72%
    04:00 +21°C° 0 mm 1 mps 666 mmHg 75%
    05:00 +21°C° 0 mm 1 mps 666 mmHg 75%
    06:00 +21°C° 0 mm 1 mps 667 mmHg 75%
    07:00 +22°C° 0 mm 1 mps 667 mmHg 76%
    08:00 +24°C° 0 mm 2 mps 668 mmHg 68%
    09:00 +26°C° 0 mm 2 mps 669 mmHg 59%
    10:00 +28°C° 0 mm 2 mps 669 mmHg 51%
    11:00 +30°C° 0 mm 3 mps 669 mmHg 47%
    12:00 +31°C° 0 mm 3 mps 668 mmHg 42%
    13:00 +33°C° 0 mm 4 mps 668 mmHg 38%
    14:00 +33°C° 0 mm 3 mps 667 mmHg 38%
    15:00 +33°C° 0 mm 3 mps 667 mmHg 37%
    16:00 +33°C° 0 mm 3 mps 666 mmHg 37%
    17:00 +30°C° 0 mm 2 mps 666 mmHg 42%
    18:00 +28°C° 0 mm 2 mps 666 mmHg 47%
    19:00 +26°C° 0 mm 2 mps 666 mmHg 52%
    20:00 +25°C° 0 mm 2 mps 666 mmHg 57%
    21:00 +24°C° 0 mm 2 mps 666 mmHg 63%
    22:00 +23°C° 0 mm 2 mps 667 mmHg 68%
    23:00 +23°C° 0.1 mm 2 mps 667 mmHg 70%

    Day after tomorrow, 9 April, Thursday

    Time Temperature Precipitation Wind Pressure Humidity
    00:00 +23°C° 0.1 mm 2 mps 667 mmHg 71%
    01:00 +23°C° 0.1 mm 2 mps 667 mmHg 73%
    02:00 +21°C° 0 mm 2 mps 667 mmHg 74%
    03:00 +21°C° 0 mm 2 mps 667 mmHg 76%
    04:00 +20°C° 0 mm 3 mps 667 mmHg 77%
    05:00 +20°C° 0 mm 2 mps 667 mmHg 78%
    06:00 +20°C° 0 mm 2 mps 667 mmHg 79%
    07:00 +20°C° 0 mm 2 mps 668 mmHg 79%
    08:00 +24°C° 0 mm 3 mps 668 mmHg 68%
    09:00 +26°C° 0 mm 3 mps 669 mmHg 57%
    10:00 +29°C° 0 mm 4 mps 670 mmHg 46%
    11:00 +30°C° 0 mm 4 mps 669 mmHg 41%
    12:00 +33°C° 0 mm 4 mps 669 mmHg 36%
    13:00 +34°C° 0 mm 4 mps 668 mmHg 30%
    14:00 +34°C° 0 mm 4 mps 668 mmHg 31%
    15:00 +34°C° 0 mm 3 mps 668 mmHg 31%
    16:00 +33°C° 0 mm 3 mps 667 mmHg 31%
    17:00 +30°C° 0 mm 3 mps 667 mmHg 37%
    18:00 +29°C° 0 mm 2 mps 667 mmHg 43%
    19:00 +27°C° 0 mm 2 mps 667 mmHg 48%
    20:00 +26°C° 0 mm 2 mps 667 mmHg 51%
    21:00 +26°C° 0 mm 3 mps 667 mmHg 53%
    22:00 +25°C° 0 mm 3 mps 668 mmHg 56%
    23:00 +25°C° 0 mm 3 mps 668 mmHg 57%

    10 April, Friday

    Time Temperature Precipitation Wind Pressure Humidity
    00:00 +25°C° 0 mm 2 mps 668 mmHg 58%
    01:00 +24°C° 0 mm 2 mps 668 mmHg 59%
    02:00 +24°C° 0 mm 2 mps 668 mmHg 61%
    03:00 +24°C° 0 mm 2 mps 667 mmHg 62%
    04:00 +23°C° 0 mm 2 mps 667 mmHg 63%
    05:00 +23°C° 0 mm 2 mps 668 mmHg 65%
    06:00 +23°C° 0 mm 2 mps 668 mmHg 68%
    07:00 +21°C° 0 mm 3 mps 668 mmHg 70%
    08:00 +24°C° 0 mm 3 mps 669 mmHg 63%
    09:00 +27°C° 0 mm 4 mps 669 mmHg 56%
    10:00 +29°C° 0 mm 5 mps 670 mmHg 49%
    11:00 +30°C° 0 mm 5 mps 669 mmHg 45%
    12:00 +32°C° 0 mm 5 mps 669 mmHg 42%
    13:00 +33°C° 0 mm 4 mps 668 mmHg 38%
    14:00 +33°C° 0 mm 4 mps 668 mmHg 40%
    15:00 +32°C° 0 mm 4 mps 668 mmHg 41%
    16:00 +32°C° 0 mm 4 mps 667 mmHg 42%
    17:00 +30°C° 0 mm 3 mps 667 mmHg 47%
    18:00 +28°C° 0 mm 3 mps 667 mmHg 51%
    19:00 +26°C° 0 mm 2 mps 667 mmHg 56%
    20:00 +25°C° 0.1 mm 2 mps 667 mmHg 61%
    21:00 +24°C° 0.1 mm 2 mps 667 mmHg 67%
    22:00 +23°C° 0.1 mm 2 mps 668 mmHg 72%
    23:00 +23°C° 0 mm 2 mps 668 mmHg 73%

    11 April, Saturday

    Time Temperature Precipitation Wind Pressure Humidity
    00:00 +21°C° 0 mm 2 mps 667 mmHg 75%
    01:00 +21°C° 0 mm 2 mps 667 mmHg 76%
    02:00 +20°C° 0 mm 2 mps 667 mmHg 78%
    03:00 +20°C° 0 mm 2 mps 667 mmHg 80%
    04:00 +20°C° 0 mm 2 mps 667 mmHg 82%
    05:00 +20°C° 0 mm 2 mps 667 mmHg 81%
    06:00 +20°C° 0 mm 3 mps 668 mmHg 81%
    07:00 +20°C° 0 mm 3 mps 668 mmHg 80%
    08:00 +23°C° 0 mm 4 mps 669 mmHg 72%
    09:00 +26°C° 0 mm 4 mps 669 mmHg 63%
    10:00 +28°C° 0 mm 5 mps 670 mmHg 54%
    11:00 +29°C° 0 mm 5 mps 669 mmHg 51%
    12:00 +30°C° 0 mm 4 mps 669 mmHg 47%
    13:00 +33°C° 0 mm 4 mps 668 mmHg 44%
    14:00 +32°C° 0 mm 4 mps 668 mmHg 44%
    15:00 +31°C° 0 mm 3 mps 667 mmHg 45%
    16:00 +31°C° 0 mm 3 mps 667 mmHg 45%
    17:00 +29°C° 0 mm 3 mps 667 mmHg 51%
    18:00 +27°C° 0 mm 3 mps 667 mmHg 56%
    19:00 +26°C° 0 mm 2 mps 667 mmHg 62%
    20:00 +25°C° 0 mm 2 mps 667 mmHg 65%
    21:00 +24°C° 0 mm 2 mps 667 mmHg 69%
    22:00 +23°C° 0 mm 2 mps 668 mmHg 73%
    23:00 +23°C° 0 mm 2 mps 667 mmHg 75%

    12 April, Sunday

    Time Temperature Precipitation Wind Pressure Humidity
    00:00 +21°C° 0 mm 2 mps 667 mmHg 77%
    01:00 +21°C° 0 mm 2 mps 667 mmHg 79%
    02:00 +21°C° 0 mm 2 mps 667 mmHg 80%
    03:00 +20°C° 0 mm 2 mps 667 mmHg 81%
    04:00 +20°C° 0 mm 2 mps 667 mmHg 82%
    05:00 +20°C° 0 mm 2 mps 667 mmHg 82%
    06:00 +20°C° 0 mm 2 mps 668 mmHg 81%
    07:00 +21°C° 0 mm 3 mps 668 mmHg 80%
    08:00 +24°C° 0 mm 3 mps 669 mmHg 70%
    09:00 +27°C° 0 mm 3 mps 670 mmHg 60%
    10:00 +30°C° 0 mm 4 mps 670 mmHg 50%
    11:00 +32°C° 0 mm 4 mps 670 mmHg 45%
    12:00 +33°C° 0 mm 3 mps 669 mmHg 40%
    13:00 +34°C° 0 mm 3 mps 668 mmHg 35%
    14:00 +32°C° 0 mm 2 mps 668 mmHg 37%
    15:00 +32°C° 0 mm 2 mps 667 mmHg 38%
    16:00 +31°C° 0 mm 1 mps 667 mmHg 39%
    17:00 +30°C° 0 mm 1 mps 667 mmHg 42%
    18:00 +29°C° 0 mm 1 mps 667 mmHg 45%
    19:00 +27°C° 0 mm 2 mps 666 mmHg 48%
    20:00 +27°C° 0 mm 1 mps 667 mmHg 49%
    21:00 +26°C° 0 mm 1 mps 667 mmHg 50%
    22:00 +26°C° 0 mm 1 mps 667 mmHg 51%
    23:00 +25°C° 0 mm 1 mps 667 mmHg 53%
    Show more